Overview Statistics Trail Chart Weather Telemetry Raw packets
 

This is the latest recevied weather packets stored in our database for station/object N6GPM. If no packets are shown the sender has not sent any weather packets the latest 10 day(s).

<< 10 11 12 13 14 15 16 >>
Time Temp. Humidity Pressure Rain* Wind** Luminosity Snow
1788605541 18.33° C 33% 1017.6 hPa 0 mm - 0 W/m² -
1788605236 17.78° C 36% 1017.8 hPa 0 mm - 0 W/m² -
1788604933 17.78° C 43% 1017.8 hPa 0 mm - 0 W/m² -
1788604627 17.78° C 45% 1017.6 hPa 0 mm - 0 W/m² -
1788604323 17.78° C 46% 1017.6 hPa 0 mm - 0 W/m² -
1788604019 17.78° C 46% 1017.6 hPa 0 mm - 0 W/m² -
1788603715 18.33° C 44% 1017.7 hPa 0 mm - 0 W/m² -
1788603414 18.33° C 43% 1017.7 hPa 0 mm - 0 W/m² -
1788603112 18.33° C 42% 1017.7 hPa 0 mm - 0 W/m² -
1788602808 18.33° C 43% 1017.6 hPa 0 mm - 0 W/m² -
1788602503 18.33° C 43% 1017.6 hPa 0 mm - 0 W/m² -
1788602202 17.78° C 43% 1017.8 hPa 0 mm - 0 W/m² -
1788601897 17.78° C 43% 1017.9 hPa 0 mm - 0 W/m² -
1788601593 17.78° C 43% 1017.7 hPa 0 mm - 0 W/m² -
1788601292 17.78° C 44% 1017.8 hPa 0 mm - 0 W/m² -
1788600987 17.78° C 44% 1018 hPa 0 mm - 0 W/m² -
1788600683 17.78° C 43% 1017.9 hPa 0 mm - 0 W/m² -
1788600383 18.33° C 43% 1017.6 hPa 0 mm - 0 W/m² -
1788600079 18.33° C 42% 1017.8 hPa 0 mm - 0 W/m² -
1788599778 18.33° C 42% 1017.6 hPa 0 mm - 0 W/m² -
1788599472 18.33° C 42% 1017.7 hPa 0 mm - 0 W/m² -
1788599167 18.33° C 42% 1017.8 hPa 0 mm - 0 W/m² -
1788598863 18.33° C 41% 1017.7 hPa 0 mm - 0 W/m² -
1788598561 18.33° C 41% 1017.9 hPa 0 mm - 0 W/m² -
1788598257 18.33° C 40% 1017.9 hPa 0 mm - 0 W/m² -

* Rain latest hour (hover to see other rain measurements)
** Current wind speed in m/s (hover to see current wind gust speed)